NOAA 16 DEB, 41667

Orbit data source: Space-Track

NOAA 16 DEB, 41667 is space debris in SSO originally from a launch on Thu, 21 Sep 2000 UTC launched from the Air Force Western Test Range (AFWTR). Debris objects in space refer to the collection of defunct objects orbiting the Earth. Examples of debris include non-operational satellites, rocket bodies, and fragments generated from explosions, collisions, or faulty payload assembly.

Loading next visibility...
Identifier
41667, 2000-055PG
Orbit
SSO
Last TLE update
1 day ago
Origin
Manufacturer
Unknown
Mission
Spacecraft
Bus & Motor
Unknown
Mass
Unknown
Launch date (UTC)
2000-09-21 (25 years ago)
Launch vehicle
Unknown
Launch site
Air Force Western Test Range (AFWTR)
Object type
Payload
Rocket body
Debris
Shape & HBR
Unknown
Radar Cross Section
Small (<0.1 m²)

Expand to show TLE details & history

TLE from 1 day ago
0 NOAA 16 DEB
1 41667U 00055PG  25188.06572279  .00000940  00000-0  42234-3 0  9997
2 41667  98.7684 288.5866 0031303  96.7419 263.7323 14.24531698478960
Epoch: 2025-07-07T01:34Z
TLE epoch observation values (Epoch: 2025-07-07T01:34:38.449Z)
Latitude
-0.00006°
Longitude
-20.354°
Altitude
815.513 km
Speed
7.444 km/s
True Right ascension
19h 14m 20s
True Declination
0° 00' 00"
Sunlit
Object was in full shadow at epoch
Visualization orbit readout
Latitude
31.67708°
Longitude
-24.51846°
Altitude
803.14 km
Speed
7.46 km/s
Apparent Right ascension
15h 53m 12s
Apparent Declination
-8° 37' 24"
Sunlit
Object is in full shadow
Visualization observer readout
Local Sidereal Time
20:09:49
Azimuth
246.248° WSW
Elevation
13.555°
Doppler factor
1
Orbital elements
Apogee altitude
829.715 km
Perigee altitude
784.731 km
Semi-major axis
7,185.36 km
Eccentricity
0.00313
Inclination
98.7684°
RAAN
288.5866°
Arg. of periapsis
96.7419°
True anomaly
Unknown
Mean anomaly
263.7323°
Eccentric anomaly
Unknown
Mean motion
3.56345 °/min
Orbital period
101.03 mins
BSTAR
0.00042234
Loading maneuver chart data...
Loading SW <> Apogee altitude chart data...
Loading historical data...
Loading historical data...
Loading historical data...
Loading historical data...
Loading historical data...
Loading historical data...
Loading historical data...

NOAA 16 DEB Visibility forecast

Observer location: undefined°, undefined°

Span
Click to sort rows by Start time (UTC) header in descending order
Start Az.
Max El. time (UTC)
Max El. Az.
Max El.
End time (UTC)
End Az.
4 mins2025-07-08 08:04:10.111Z245.982° WSW2025-07-08 08:06:10.111Z271.786° WNW14.861°2025-07-08 08:08:10.111Z296.486° NW
6 mins2025-07-08 18:39:10.111Z57.252° ENE2025-07-08 18:41:10.111Z86.879° E21.749°2025-07-08 18:45:10.111Z143.249° SSE
8 mins2025-07-08 20:18:10.111Z350.737° N2025-07-08 20:21:10.111Z302.63° NW32.259°2025-07-08 20:26:10.111Z223.731° SW
7 mins2025-07-09 05:59:10.111Z122.249° SE2025-07-09 06:02:10.111Z66.353° ENE30.889°2025-07-09 06:06:10.111Z6.56° NNE
7 mins2025-07-09 07:39:10.111Z221.073° SW2025-07-09 07:42:10.111Z267.954° W23.552°2025-07-09 07:46:10.111Z319.814° NNW
|